Tracking 30743 objects as of 21-Jun-2025
HD Live streaming from Space Station
objects crossing your sky now

NOAA 16 DEB

Track NOAA 16 DEB now!
10-day predictions


NORAD ID: 41056
Int'l Code: 2000-055P
Perigee: 843.1 km
Apogee: 869.8 km
Inclination: 98.6 °
Period: 101.9 minutes
Semi major axis: 7227 km
RCS: Unknown
Launch date: September 21, 2000
Source: United States (US)
Launch site: AIR FORCE WESTERN TEST RANGE (AFWTR)

Note: This is SATELLITE DEBRIS
Your satellite tracking list
Your tracking list is empty




NASA's NSSDC Master Catalog

Two Line Element Set (TLE):
1 41056U 00055P   25171.74403896  .00000804  00000-0  45323-3 0  9995
2 41056  98.5522 181.8693 0018513  71.4959 288.8224 14.12942348492432
Source of the keplerian elements: AFSPC